Buffalo, WY (82834)

5:43 AM MST on December 10, 2016 (GMT -0700)
Buffalo | | Change Station

Elev 4708 ft 44.34 °N, 106.70 °W | Updated 21 seconds ago

Mostly Cloudy
Mostly Cloudy
10.6 °F
Feels Like 11 °F
N
0.0
Wind Variable Wind from SW
Gusts 0.0 mph

Today
High -- | Low -- °F
--% Chance of Precip.
Yesterday
High -- | Low -- °F
Precip. -- in
Pressure 30.04 in
Visibility 10.0 miles
Clouds Mostly Cloudy 9500 ft
Windchill 11 °F
Dew Point 2 °F
Humidity 69%
Rainfall 0.00 in
Snow Depth Not available.
7:32 AM 4:27 PM
Waxing Gibbous, 83% visible
METAR KBYG 101153Z AUTO 34008KT 10SM BKN095 M13/M17 A2981 RMK AO2 SLP172 T11331172 11117 21133 58020
Pressure 30.04 in
Visibility 10.0 miles
Clouds Mostly Cloudy 9500 ft
Windchill 11 °F
Dew Point 2 °F
Humidity 69%
Rainfall 0.00 in
Snow Depth Not available.
7:32 AM 4:27 PM
Waxing Gibbous, 83% visible
METAR KBYG 101153Z AUTO 34008KT 10SM BKN095 M13/M17 A2981 RMK AO2 SLP172 T11331172 11117 21133 58020

10-Day Weather Forecast

Almanac

Astronomy

Dec. 10, 2016 Rise Set
Actual Time
Civil Twilight
Nautical Twilight
Astronomical Twilight
Moon
Length of Visible Light
Length of Day
Tomorrow will be .
, % of the Moon is Illuminated

Today's Extremes

State Highs State Lows

Community

WunderPhotos

Upload Photos

1,956,540 photos uploaded!

WunderBlog® & News

Nearby

Air Quality

  Air Quality AQ Index Pollutant
Not available.

Snow Depth

Station Depth Elevation

Earthquake Activity

City Distance Mag. Time & Date
Minimum magnitude displayed is 2.5.

Coastal Water Temperatures

Place Temperature

Stations

Nearby Weather Stations

Station Location Temp. Windchill Dew Point Humidity Wind Precip. Elev Updated Type
                   

Watches & Warnings

There are currently no watches in effect.